VIR136 KMCO-EHAM

Flight info

Callsign VIR136
Flight time N/A
Altitude 32000
Route JEEMY4 PAINN SHRKS BERTT GURGE RAYVO Q87 NOWAE FAK BOOYA Q34 RBV Q22 LLUND BIZEX Q133 CAM BEEHS JIGZY HULTN N611A SAXAN 5250N 5340N 5330N 5320N MALOT GISTI ENJEX ADHAV AXNEF ZIPWE OZZIL SAWPE L179 ICTAM M197 REDFA
Aircraft A346/H-SDE2E3FGHIJ3J4J5M1RWXY/LB1D1

Departure

Time 2026-04-25 11:52
Airport Orlando International Airport (KMCO)

Arrival

Time N/A
Airport Amsterdam Airport Schiphol (EHAM)
Time Latitude Longitude Altitude Speed Heading
2026-04-25 08:59 28.41091 -81.31608 92 ft 0 kts 360°
2026-04-25 11:18 28.41089 -81.31608 92 ft 1 kts 360°
2026-04-25 11:18 28.41074 -81.31608 92 ft 2 kts 359°
2026-04-25 11:18 28.41060 -81.31608 92 ft 2 kts 360°
2026-04-25 11:18 28.41045 -81.31608 92 ft 2 kts 360°
2026-04-25 11:19 28.41032 -81.31608 92 ft 0 kts 360°
2026-04-25 11:19 28.41021 -81.31607 92 ft 2 kts 345°
2026-04-25 11:19 28.41008 -81.31599 92 ft 2 kts 314°
2026-04-25 11:19 28.41000 -81.31585 92 ft 2 kts 288°
2026-04-25 11:20 28.40997 -81.31573 91 ft 0 kts 269°
2026-04-25 11:20 28.40998 -81.31569 91 ft 0 kts 268°
2026-04-25 11:33 28.40998 -81.31576 91 ft 1 kts 271°
2026-04-25 11:33 28.40998 -81.31595 92 ft 2 kts 271°
2026-04-25 11:34 28.40998 -81.31619 92 ft 3 kts 271°
2026-04-25 11:34 28.40998 -81.31651 93 ft 4 kts 270°
2026-04-25 11:34 28.40998 -81.31692 93 ft 6 kts 269°
2026-04-25 11:34 28.40997 -81.31753 93 ft 7 kts 269°
2026-04-25 11:35 28.40997 -81.31801 93 ft 2 kts 269°
2026-04-25 11:35 28.40997 -81.31802 93 ft 0 kts 269°
2026-04-25 11:36 28.40997 -81.31807 93 ft 3 kts 269°
2026-04-25 11:36 28.40996 -81.31852 93 ft 7 kts 269°
2026-04-25 11:36 28.41014 -81.31897 93 ft 6 kts 330°
2026-04-25 11:37 28.41061 -81.31911 94 ft 8 kts 353°
2026-04-25 11:37 28.41139 -81.31912 95 ft 13 kts
2026-04-25 11:37 28.41244 -81.31912 96 ft 16 kts
2026-04-25 11:37 28.41367 -81.31914 96 ft 17 kts 359°
2026-04-25 11:38 28.41478 -81.31915 96 ft 11 kts 359°
2026-04-25 11:38 28.41546 -81.31953 97 ft 11 kts 319°
2026-04-25 11:38 28.41616 -81.31978 96 ft 11 kts 356°
2026-04-25 11:38 28.41701 -81.31982 97 ft 12 kts
2026-04-25 11:39 28.41800 -81.31980 98 ft 16 kts 359°
2026-04-25 11:39 28.41934 -81.31982 99 ft 22 kts 359°
2026-04-25 11:39 28.42112 -81.31984 99 ft 28 kts 359°
2026-04-25 11:39 28.42321 -81.31986 99 ft 30 kts 359°
2026-04-25 11:40 28.42534 -81.31989 99 ft 30 kts 359°
2026-04-25 11:40 28.42749 -81.31992 99 ft 30 kts 359°
2026-04-25 11:40 28.42963 -81.31994 99 ft 30 kts 359°
2026-04-25 11:40 28.43175 -81.31998 100 ft 30 kts 359°
2026-04-25 11:41 28.43389 -81.31999 100 ft 30 kts 360°
2026-04-25 11:41 28.43601 -81.32000 100 ft 30 kts 360°
2026-04-25 11:41 28.43814 -81.32002 100 ft 30 kts 359°
2026-04-25 11:41 28.44029 -81.32005 100 ft 30 kts 359°
2026-04-25 11:42 28.44231 -81.32008 101 ft 26 kts 359°
2026-04-25 11:42 28.44414 -81.32010 103 ft 26 kts 360°
2026-04-25 11:42 28.44585 -81.32011 101 ft 23 kts 359°
2026-04-25 11:42 28.44680 -81.32013 100 ft 0 kts 359°
2026-04-25 11:43 28.44681 -81.32013 100 ft 0 kts 359°
2026-04-25 11:43 28.44706 -81.32013 100 ft 5 kts
2026-04-25 11:43 28.44757 -81.32013 100 ft 8 kts
2026-04-25 11:44 28.44798 -81.32013 100 ft 0 kts 358°
2026-04-25 11:47 28.44806 -81.32016 100 ft 1 kts 327°
2026-04-25 11:47 28.44816 -81.32035 100 ft 4 kts 288°
2026-04-25 11:47 28.44823 -81.32079 100 ft 6 kts 276°
2026-04-25 11:48 28.44823 -81.32094 100 ft 0 kts 270°
2026-04-25 11:50 28.44823 -81.32117 100 ft 8 kts 269°
2026-04-25 11:50 28.44820 -81.32201 100 ft 8 kts 265°
2026-04-25 11:50 28.44797 -81.32227 100 ft 5 kts 192°
2026-04-25 11:50 28.44778 -81.32229 100 ft 0 kts 181°
2026-04-25 11:51 28.44753 -81.32229 100 ft 21 kts 181°
2026-04-25 11:51 28.44379 -81.32226 102 ft 84 kts 179°
2026-04-25 11:51 28.43633 -81.32218 100 ft 136 kts 180°
2026-04-25 11:52 28.42530 -81.32204 103 ft 179 kts 180°
2026-04-25 11:52 28.41227 -81.32196 341 ft 191 kts 180°
2026-04-25 11:52 28.39913 -81.32159 907 ft 184 kts 180°
2026-04-25 11:52 28.38669 -81.32439 1288 ft 192 kts 210°
2026-04-25 11:53 28.37461 -81.33258 1682 ft 211 kts 213°
2026-04-25 11:53 28.36401 -81.34512 2119 ft 232 kts 245°
2026-04-25 11:53 28.36045 -81.36328 2595 ft 252 kts 275°
2026-04-25 11:53 28.36620 -81.38265 3107 ft 269 kts 309°
2026-04-25 11:54 28.38087 -81.39550 3853 ft 274 kts 339°
2026-04-25 11:54 28.39861 -81.40359 4734 ft 276 kts 329°
2026-04-25 11:54 28.41962 -81.43851 6353 ft 286 kts 277°
2026-04-25 11:55 28.41839 -81.46149 6826 ft 305 kts 254°
2026-04-25 11:55 28.40861 -81.48428 6996 ft 335 kts 237°
2026-04-25 11:55 28.39531 -81.50754 6986 ft 368 kts 244°
2026-04-25 11:55 28.38726 -81.53560 7617 ft 377 kts 257°
2026-04-25 11:56 28.38084 -81.56374 8903 ft 369 kts 257°
2026-04-25 11:56 28.37455 -81.59119 10084 ft 363 kts 257°
2026-04-25 11:56 28.36827 -81.61841 11252 ft 355 kts 258°
2026-04-25 11:56 28.36230 -81.64495 12370 ft 346 kts 261°
2026-04-25 11:57 28.35669 -81.67071 13458 ft 335 kts 257°
2026-04-25 11:57 28.35316 -81.69613 14472 ft 318 kts 276°
2026-04-25 11:57 28.35806 -81.71964 15225 ft 308 kts 300°
2026-04-25 11:57 28.37123 -81.73855 15749 ft 307 kts 319°
2026-04-25 11:58 28.38946 -81.75189 15968 ft 321 kts 339°
2026-04-25 11:58 28.41184 -81.75633 15977 ft 343 kts
2026-04-25 11:58 28.43549 -81.74915 15983 ft 367 kts 25°
2026-04-25 11:58 28.45837 -81.73384 15998 ft 386 kts 27°
2026-04-25 11:59 28.48210 -81.71856 15993 ft 405 kts 27°
2026-04-25 11:59 28.50739 -81.70249 16002 ft 423 kts 27°
2026-04-25 11:59 28.53312 -81.68609 16568 ft 425 kts 27°
2026-04-25 12:00 28.66528 -81.60201 19105 ft 425 kts 26°
2026-04-25 12:01 28.69092 -81.58588 19624 ft 423 kts 26°
2026-04-25 12:01 28.71680 -81.56962 19770 ft 418 kts 26°
2026-04-25 12:02 28.84071 -81.49235 16190 ft 400 kts 26°
2026-04-25 12:02 28.86551 -81.47701 16237 ft 402 kts 26°
2026-04-25 12:03 28.89014 -81.46179 16285 ft 402 kts 26°
2026-04-25 12:03 28.91462 -81.44667 16344 ft 403 kts 26°
2026-04-25 12:03 28.93941 -81.43137 16402 ft 404 kts 26°
2026-04-25 12:03 28.96513 -81.41838 16423 ft 400 kts 11°
2026-04-25 12:04 28.99156 -81.41567 16485 ft 396 kts 356°
2026-04-25 12:04 29.01861 -81.41827 16450 ft 389 kts 351°
2026-04-25 12:04 29.04555 -81.42235 16086 ft 388 kts 351°
2026-04-25 12:04 29.07246 -81.42597 15944 ft 392 kts 352°
2026-04-25 12:05 29.09984 -81.42908 16082 ft 399 kts 353°
2026-04-25 12:05 29.12750 -81.43185 16671 ft 399 kts 353°
2026-04-25 12:05 29.15531 -81.43452 17230 ft 400 kts 353°
2026-04-25 12:05 29.18332 -81.43720 17688 ft 403 kts 353°
2026-04-25 12:06 29.21129 -81.43986 18143 ft 406 kts 353°
2026-04-25 12:06 29.23968 -81.44255 18600 ft 409 kts 353°
2026-04-25 12:06 29.26821 -81.44527 19068 ft 411 kts 353°
2026-04-25 12:06 29.29666 -81.44797 19515 ft 413 kts 353°
2026-04-25 12:07 29.32547 -81.45071 19967 ft 415 kts 353°
2026-04-25 12:07 29.35460 -81.45349 20408 ft 418 kts 353°
2026-04-25 12:07 29.38328 -81.45623 20842 ft 420 kts 353°
2026-04-25 12:07 29.41271 -81.45902 21259 ft 422 kts 353°
2026-04-25 12:08 29.44187 -81.46181 21682 ft 424 kts 353°
2026-04-25 12:08 29.47174 -81.46466 22070 ft 427 kts 353°
2026-04-25 12:08 29.50117 -81.46746 22442 ft 429 kts 353°
2026-04-25 12:08 29.53125 -81.47033 22827 ft 432 kts 353°
2026-04-25 12:09 29.56010 -81.47308 23176 ft 434 kts 353°
2026-04-25 12:09 29.59023 -81.47594 23528 ft 437 kts 353°
2026-04-25 12:09 29.62075 -81.47875 23889 ft 439 kts 353°
2026-04-25 12:09 29.65133 -81.48152 24256 ft 441 kts 354°
2026-04-25 12:10 29.67372 -81.48354 24521 ft 443 kts 354°
2026-04-25 12:10 29.69340 -81.48531 24756 ft 444 kts 354°
2026-04-25 12:10 29.71731 -81.48747 25039 ft 445 kts 354°
2026-04-25 12:10 29.74828 -81.49026 25398 ft 447 kts 354°
2026-04-25 12:11 29.77774 -81.49293 25707 ft 449 kts 354°
2026-04-25 12:11 29.80908 -81.49577 26033 ft 451 kts 354°
2026-04-25 12:11 29.84042 -81.49865 26354 ft 453 kts 353°
2026-04-25 12:11 29.87197 -81.50310 26675 ft 454 kts 350°
2026-04-25 12:12 29.90322 -81.50986 26969 ft 456 kts 347°
2026-04-25 12:12 29.92358 -81.51556 27141 ft 458 kts 345°
2026-04-25 12:12 29.96457 -81.52950 27521 ft 461 kts 342°
2026-04-25 12:12 29.99516 -81.54042 27807 ft 463 kts 342°
2026-04-25 12:13 30.02367 -81.55065 28071 ft 464 kts 342°
2026-04-25 12:13 30.05491 -81.56187 28357 ft 466 kts 343°
2026-04-25 12:13 30.08566 -81.57290 28616 ft 468 kts 343°
2026-04-25 12:13 30.11709 -81.58418 28877 ft 470 kts 343°
2026-04-25 12:14 30.14811 -81.59531 29147 ft 471 kts 343°
2026-04-25 12:14 30.17958 -81.60661 29464 ft 471 kts 343°
2026-04-25 12:14 30.21089 -81.61784 29861 ft 468 kts 343°
2026-04-25 12:14 30.24183 -81.62894 30226 ft 466 kts 343°
2026-04-25 12:15 30.27311 -81.64017 30526 ft 466 kts 343°
2026-04-25 12:15 30.30405 -81.65129 30810 ft 466 kts 343°
2026-04-25 12:15 30.33492 -81.66240 31094 ft 466 kts 343°
2026-04-25 12:15 30.36599 -81.67358 31343 ft 466 kts 343°
2026-04-25 12:16 30.39629 -81.68449 31562 ft 467 kts 343°
2026-04-25 12:16 30.42793 -81.69589 31757 ft 468 kts 343°
2026-04-25 12:16 30.45883 -81.70703 31976 ft 469 kts 343°
2026-04-25 12:16 30.49009 -81.71832 32185 ft 469 kts 343°
2026-04-25 12:17 30.52144 -81.72951 32374 ft 470 kts 344°
2026-04-25 12:17 30.55305 -81.73903 32534 ft 471 kts 347°
2026-04-25 12:17 30.58547 -81.74653 32701 ft 471 kts 351°
2026-04-25 12:17 30.61763 -81.75176 32872 ft 472 kts 354°
2026-04-25 12:18 30.68361 -81.75579 32938 ft 474 kts
2026-04-25 12:18 30.74814 -81.75123 32940 ft 474 kts
2026-04-25 12:19 30.84648 -81.73891 32933 ft 474 kts
2026-04-25 12:20 30.91222 -81.73058 32935 ft 473 kts
2026-04-25 12:20 30.97761 -81.72234 32934 ft 473 kts
2026-04-25 12:21 31.04330 -81.71405 32932 ft 473 kts
2026-04-25 12:21 31.10856 -81.70579 32928 ft 473 kts
2026-04-25 12:22 31.17365 -81.69308 32930 ft 474 kts 12°
2026-04-25 12:22 31.23767 -81.67303 32931 ft 474 kts 16°
2026-04-25 12:23 31.30046 -81.65019 32933 ft 474 kts 16°
2026-04-25 12:23 31.36358 -81.62702 32932 ft 473 kts 16°
2026-04-25 12:24 31.42639 -81.60400 32934 ft 473 kts 16°
2026-04-25 12:24 31.48694 -81.58177 32934 ft 473 kts 16°
2026-04-25 12:25 31.54993 -81.55865 32934 ft 474 kts 16°
2026-04-25 12:25 31.61284 -81.53553 32934 ft 474 kts 16°
2026-04-25 12:26 31.67602 -81.51225 32932 ft 473 kts 16°
2026-04-25 12:26 31.73867 -81.48916 32930 ft 473 kts 16°
2026-04-25 12:27 31.80163 -81.46590 32930 ft 473 kts 15°
2026-04-25 12:27 31.86421 -81.44277 32930 ft 473 kts 15°
2026-04-25 12:28 31.92729 -81.41943 32930 ft 473 kts 15°
2026-04-25 12:28 31.99006 -81.39614 32929 ft 473 kts 15°
2026-04-25 12:29 32.05253 -81.37294 32930 ft 472 kts 15°
2026-04-25 12:29 32.11557 -81.34950 32933 ft 472 kts 16°
2026-04-25 12:30 32.17815 -81.32617 32932 ft 473 kts 16°
2026-04-25 12:30 32.24072 -81.30280 32934 ft 473 kts 16°
2026-04-25 12:31 32.30361 -81.27928 32932 ft 474 kts 16°
2026-04-25 12:31 32.36592 -81.25596 32932 ft 474 kts 16°
2026-04-25 12:32 32.42766 -81.22921 32929 ft 475 kts 22°
2026-04-25 12:32 32.48697 -81.19468 32932 ft 476 kts 27°
2026-04-25 12:33 32.54318 -81.15249 32931 ft 479 kts 34°
2026-04-25 12:33 32.59585 -81.10371 32931 ft 480 kts 37°
2026-04-25 12:34 32.64717 -81.05375 32933 ft 481 kts 37°
2026-04-25 12:34 32.69884 -81.00333 32930 ft 480 kts 38°
2026-04-25 12:35 32.75031 -80.95309 32931 ft 480 kts 38°
2026-04-25 12:35 32.80191 -80.90269 32932 ft 481 kts 38°
2026-04-25 12:36 32.85352 -80.85220 32931 ft 481 kts 38°
2026-04-25 12:36 32.90514 -80.80164 32922 ft 480 kts 38°
2026-04-25 12:37 32.95643 -80.75132 32922 ft 480 kts 38°
2026-04-25 12:37 33.00827 -80.70037 32922 ft 481 kts 38°
2026-04-25 12:38 33.05978 -80.64967 32922 ft 481 kts 38°
2026-04-25 12:38 33.11106 -80.59911 32918 ft 481 kts 38°
2026-04-25 12:39 33.16259 -80.54823 32914 ft 481 kts 38°
2026-04-25 12:39 33.21423 -80.49718 32913 ft 482 kts 38°
2026-04-25 12:40 33.26552 -80.44637 32909 ft 481 kts 38°
2026-04-25 12:40 33.31710 -80.39519 32912 ft 482 kts 38°
2026-04-25 12:41 33.36883 -80.34377 32909 ft 482 kts 38°
2026-04-25 12:41 33.42021 -80.29261 32913 ft 483 kts 38°
2026-04-25 12:42 33.47161 -80.24134 32915 ft 482 kts 38°
2026-04-25 12:42 33.52301 -80.18999 32920 ft 483 kts 38°
2026-04-25 12:43 33.57452 -80.13843 32923 ft 483 kts 38°
2026-04-25 12:43 33.65483 -80.06501 32925 ft 483 kts 32°
2026-04-25 12:44 33.71238 -80.02426 32922 ft 482 kts 27°
2026-04-25 12:45 33.80030 -79.96783 32918 ft 482 kts 27°
2026-04-25 12:45 33.88878 -79.91101 32918 ft 483 kts 27°
2026-04-25 12:46 33.94799 -79.87284 32918 ft 483 kts 27°
2026-04-25 12:46 34.00752 -79.83439 32915 ft 483 kts 27°
2026-04-25 12:47 34.06634 -79.79633 32914 ft 483 kts 27°
2026-04-25 12:47 34.12538 -79.75808 32918 ft 483 kts 27°
2026-04-25 12:48 34.18462 -79.71961 32919 ft 483 kts 27°
2026-04-25 12:48 34.24397 -79.68102 32919 ft 484 kts 27°
2026-04-25 12:49 34.30289 -79.64264 32918 ft 484 kts 27°
2026-04-25 12:49 34.36239 -79.60384 32920 ft 485 kts 27°
2026-04-25 12:50 34.42149 -79.56520 32911 ft 484 kts 27°
2026-04-25 12:50 34.48094 -79.52631 32912 ft 484 kts 27°
2026-04-25 12:51 34.54036 -79.48735 32910 ft 484 kts 27°
2026-04-25 12:51 34.59951 -79.44851 32904 ft 485 kts 27°
2026-04-25 12:52 34.65883 -79.40952 32908 ft 485 kts 27°
2026-04-25 12:52 34.71808 -79.37050 32911 ft 485 kts 27°
2026-04-25 12:53 34.77763 -79.33121 32911 ft 486 kts 27°
2026-04-25 12:53 34.83562 -79.29286 32910 ft 486 kts 27°
2026-04-25 12:54 34.89521 -79.25343 32904 ft 487 kts 27°
2026-04-25 12:54 34.95480 -79.21390 32902 ft 487 kts 27°
2026-04-25 12:55 35.00432 -79.18102 32900 ft 488 kts 27°
2026-04-25 12:55 35.07365 -79.13490 32893 ft 489 kts 27°
2026-04-25 12:56 35.13339 -79.09507 32899 ft 488 kts 27°
2026-04-25 12:56 35.19303 -79.05527 32899 ft 488 kts 27°
2026-04-25 12:57 35.25249 -79.01551 32898 ft 488 kts 27°
2026-04-25 12:57 35.31084 -78.97642 32903 ft 488 kts 27°
2026-04-25 12:58 35.37024 -78.93657 32901 ft 488 kts 27°
2026-04-25 12:58 35.42961 -78.89666 32902 ft 488 kts 27°
2026-04-25 12:59 35.48943 -78.85640 32899 ft 489 kts 27°
2026-04-25 12:59 35.54909 -78.81618 32902 ft 490 kts 27°
2026-04-25 13:00 35.59864 -78.78271 32899 ft 490 kts 27°
2026-04-25 13:00 35.66856 -78.73541 32898 ft 491 kts 27°
2026-04-25 13:01 35.72846 -78.69479 32902 ft 493 kts 26°
2026-04-25 13:01 35.78839 -78.65411 32897 ft 494 kts 26°
2026-04-25 13:02 35.84858 -78.61314 32891 ft 494 kts 26°
2026-04-25 13:02 35.90879 -78.57214 32882 ft 495 kts 26°
2026-04-25 13:03 35.96927 -78.53082 32886 ft 495 kts 26°
2026-04-25 13:03 36.02937 -78.48974 32885 ft 495 kts 26°
2026-04-25 13:04 36.08965 -78.44843 32886 ft 495 kts 26°
2026-04-25 13:04 36.14982 -78.40712 32883 ft 496 kts 26°
2026-04-25 13:05 36.21044 -78.36540 32879 ft 497 kts 26°
2026-04-25 13:05 36.27029 -78.32415 32875 ft 497 kts 26°
2026-04-25 13:06 36.33093 -78.28288 32872 ft 496 kts 24°
2026-04-25 13:06 36.39332 -78.24790 32870 ft 493 kts 18°
2026-04-25 13:07 36.44755 -78.22462 32868 ft 490 kts 14°
2026-04-25 13:07 36.52379 -78.19690 32871 ft 490 kts 13°
2026-04-25 13:08 36.58913 -78.17339 32880 ft 491 kts 13°
2026-04-25 13:08 36.65482 -78.14964 32888 ft 491 kts 13°
2026-04-25 13:09 36.72065 -78.12573 32891 ft 491 kts 13°
2026-04-25 13:09 36.78597 -78.10193 32891 ft 491 kts 12°
2026-04-25 13:10 36.85181 -78.07792 32888 ft 491 kts 12°
2026-04-25 13:10 36.91701 -78.05409 32881 ft 491 kts 12°
2026-04-25 13:11 36.98276 -78.03001 32877 ft 492 kts 12°
2026-04-25 13:11 37.04848 -78.00590 32877 ft 493 kts 12°
2026-04-25 13:12 37.11455 -77.98161 32878 ft 493 kts 12°
2026-04-25 13:12 37.16903 -77.96156 32877 ft 493 kts 12°
2026-04-25 13:13 37.24552 -77.93336 32877 ft 492 kts 12°
2026-04-25 13:13 37.31122 -77.90906 32876 ft 492 kts 12°
2026-04-25 13:14 37.37731 -77.88459 32873 ft 492 kts 12°
2026-04-25 13:14 37.44272 -77.86029 32876 ft 493 kts 12°
2026-04-25 13:15 37.50845 -77.83563 32873 ft 494 kts 13°
2026-04-25 13:15 37.57323 -77.80534 32877 ft 497 kts 18°
2026-04-25 13:16 37.63674 -77.77205 32879 ft 496 kts 18°
2026-04-25 13:16 37.70029 -77.73847 32879 ft 496 kts 18°
2026-04-25 13:17 37.76404 -77.70481 32884 ft 496 kts 18°
2026-04-25 13:17 37.82697 -77.67158 32886 ft 497 kts 18°
2026-04-25 13:18 37.89061 -77.63792 32890 ft 497 kts 18°
2026-04-25 13:18 37.95459 -77.60401 32889 ft 497 kts 18°
2026-04-25 13:19 38.01831 -77.57020 32890 ft 497 kts 18°
2026-04-25 13:19 38.07135 -77.54197 32894 ft 497 kts 18°
2026-04-25 13:20 38.14572 -77.50234 32904 ft 497 kts 18°
2026-04-25 13:20 38.20942 -77.46832 32905 ft 497 kts 18°
2026-04-25 13:21 38.27276 -77.43440 32913 ft 497 kts 18°
2026-04-25 13:21 38.33577 -77.39785 32914 ft 500 kts 23°
2026-04-25 13:22 38.39498 -77.35076 32924 ft 506 kts 31°
2026-04-25 13:23 38.47335 -77.26025 32925 ft 515 kts 44°
2026-04-25 13:23 38.51947 -77.19029 32930 ft 516 kts 46°
2026-04-25 13:24 38.56393 -77.12133 32933 ft 516 kts 46°
2026-04-25 13:24 38.60944 -77.05089 32935 ft 515 kts 46°
2026-04-25 13:25 38.65482 -76.98076 32939 ft 515 kts 46°
2026-04-25 13:25 38.70036 -76.91035 32943 ft 515 kts 46°
2026-04-25 13:26 38.74593 -76.83972 32949 ft 514 kts 46°
2026-04-25 13:26 38.79161 -76.76879 32949 ft 515 kts 46°
2026-04-25 13:27 38.83684 -76.69836 32945 ft 515 kts 46°
2026-04-25 13:27 38.88232 -76.62739 32947 ft 514 kts 45°
2026-04-25 13:28 38.92612 -76.55893 32946 ft 514 kts 45°
2026-04-25 13:28 38.97168 -76.48757 32948 ft 515 kts 45°
2026-04-25 13:29 39.01694 -76.41649 32949 ft 515 kts 45°
2026-04-25 13:29 39.06233 -76.34506 32950 ft 515 kts 46°
2026-04-25 13:30 39.12957 -76.23891 32955 ft 515 kts 46°
2026-04-25 13:31 39.19655 -76.13284 32961 ft 515 kts 46°
2026-04-25 13:31 39.24140 -76.06164 32966 ft 515 kts 46°
2026-04-25 13:32 39.28635 -75.99010 32969 ft 514 kts 46°
2026-04-25 13:32 39.33117 -75.91862 32972 ft 515 kts 46°
2026-04-25 13:33 39.37625 -75.84655 32976 ft 515 kts 46°
2026-04-25 13:33 39.42086 -75.77503 32981 ft 514 kts 46°
2026-04-25 13:34 39.46577 -75.70290 32989 ft 514 kts 45°
2026-04-25 13:34 39.51017 -75.63142 32998 ft 514 kts 45°
2026-04-25 13:35 39.55494 -75.55922 33000 ft 513 kts 45°
2026-04-25 13:35 39.59946 -75.48725 33003 ft 514 kts 45°
2026-04-25 13:36 39.64391 -75.41517 33005 ft 514 kts 45°
2026-04-25 13:36 39.68835 -75.34296 33011 ft 513 kts 46°
2026-04-25 13:37 39.73259 -75.27097 33013 ft 513 kts 46°
2026-04-25 13:37 39.77707 -75.19836 33021 ft 512 kts 46°
2026-04-25 13:38 39.82117 -75.12621 33030 ft 512 kts 45°
2026-04-25 13:38 39.86520 -75.05402 33031 ft 512 kts 46°
2026-04-25 13:39 39.90891 -74.98221 33034 ft 512 kts 45°
2026-04-25 13:39 39.95293 -74.90971 33041 ft 513 kts 46°
2026-04-25 13:40 39.99668 -74.83746 33043 ft 513 kts 46°
2026-04-25 13:40 40.04063 -74.76466 33049 ft 512 kts 45°
2026-04-25 13:41 40.08472 -74.69150 33050 ft 511 kts 45°
2026-04-25 13:41 40.12841 -74.61880 33055 ft 511 kts 45°
2026-04-25 13:42 40.17251 -74.54638 33055 ft 509 kts 43°
2026-04-25 13:42 40.22067 -74.47922 33054 ft 504 kts 36°
2026-04-25 13:43 40.27274 -74.41959 33059 ft 498 kts 32°
2026-04-25 13:43 40.32668 -74.36216 33058 ft 498 kts 31°
2026-04-25 13:44 40.38004 -74.30527 33062 ft 498 kts 32°
2026-04-25 13:44 40.42452 -74.25764 33065 ft 498 kts 32°
2026-04-25 13:45 40.48720 -74.19025 33077 ft 498 kts 32°
2026-04-25 13:45 40.54039 -74.13294 33080 ft 497 kts 32°
2026-04-25 13:46 40.59366 -74.07536 33083 ft 497 kts 32°
2026-04-25 13:46 40.64675 -74.01782 33085 ft 495 kts 32°
2026-04-25 13:47 40.69789 -73.96233 33085 ft 494 kts 32°
2026-04-25 13:47 40.75114 -73.90437 33087 ft 495 kts 32°
2026-04-25 13:48 40.80407 -73.84882 33086 ft 490 kts 28°
2026-04-25 13:48 40.86053 -73.79981 33085 ft 484 kts 22°
2026-04-25 13:49 40.91794 -73.75988 33087 ft 476 kts 17°
2026-04-25 13:49 40.97893 -73.72678 33087 ft 471 kts 12°
2026-04-25 13:50 41.03990 -73.69769 33088 ft 469 kts 12°
2026-04-25 13:50 41.10162 -73.66836 33087 ft 469 kts 12°
2026-04-25 13:51 41.16257 -73.63923 33093 ft 469 kts 12°
2026-04-25 13:51 41.22372 -73.61034 33093 ft 467 kts 10°
2026-04-25 13:52 41.28613 -73.58736 33094 ft 461 kts
2026-04-25 13:52 41.34854 -73.57252 33092 ft 455 kts 360°
2026-04-25 13:53 41.41097 -73.56345 33096 ft 453 kts 359°
2026-04-25 13:53 41.47380 -73.55499 33095 ft 452 kts 358°
2026-04-25 13:54 41.53591 -73.54662 33094 ft 451 kts 358°
2026-04-25 13:54 41.59820 -73.53817 33093 ft 450 kts 358°
2026-04-25 13:55 41.66049 -73.52971 33086 ft 450 kts 358°
2026-04-25 13:55 41.72279 -73.52123 33082 ft 449 kts 358°
2026-04-25 13:56 41.78478 -73.51277 33075 ft 450 kts 358°
2026-04-25 13:56 41.84698 -73.50427 33069 ft 450 kts 358°
2026-04-25 13:57 41.90903 -73.49576 33064 ft 448 kts 358°
2026-04-25 13:57 41.97090 -73.48726 33061 ft 448 kts 358°
2026-04-25 13:58 42.03294 -73.47871 33055 ft 448 kts 358°
2026-04-25 13:58 42.09465 -73.47019 33060 ft 449 kts 358°
2026-04-25 13:59 42.15613 -73.46171 33065 ft 449 kts 358°
2026-04-25 13:59 42.21779 -73.45312 33059 ft 447 kts 358°
2026-04-25 14:00 42.26967 -73.44595 33061 ft 450 kts 358°
2026-04-25 14:00 42.34226 -73.43585 33068 ft 449 kts 358°
2026-04-25 14:01 42.40411 -73.42723 33070 ft 449 kts 358°
2026-04-25 14:01 42.46579 -73.41862 33072 ft 448 kts 358°
2026-04-25 14:02 42.52806 -73.40992 33077 ft 448 kts 358°
2026-04-25 14:02 42.58979 -73.40125 33071 ft 447 kts 358°
2026-04-25 14:03 42.65041 -73.39274 33071 ft 447 kts 358°
2026-04-25 14:03 42.71191 -73.38412 33066 ft 447 kts 358°
2026-04-25 14:04 42.77376 -73.37540 33066 ft 447 kts 358°
2026-04-25 14:04 42.83544 -73.36668 33074 ft 446 kts 358°
2026-04-25 14:05 42.89700 -73.35794 33067 ft 445 kts 358°
2026-04-25 14:05 42.95893 -73.34914 33067 ft 446 kts 359°
2026-04-25 14:06 43.02064 -73.34093 33063 ft 447 kts 357°
2026-04-25 14:06 43.08230 -73.33472 33060 ft 444 kts 357°
2026-04-25 14:07 43.14307 -73.32859 33057 ft 446 kts 357°
2026-04-25 14:07 43.20502 -73.32224 33057 ft 445 kts 357°
2026-04-25 14:08 43.26704 -73.31577 33059 ft 447 kts 357°
2026-04-25 14:08 43.32867 -73.30933 33059 ft 447 kts 357°
2026-04-25 14:09 43.39065 -73.30283 33061 ft 446 kts 357°
2026-04-25 14:09 43.45220 -73.29636 33062 ft 446 kts 357°
2026-04-25 14:10 43.51435 -73.28982 33066 ft 447 kts 357°
2026-04-25 14:10 43.57629 -73.28329 33065 ft 445 kts 357°
2026-04-25 14:11 43.63784 -73.27677 33066 ft 447 kts 357°
2026-04-25 14:11 43.69681 -73.27055 33065 ft 447 kts 357°
2026-04-25 14:12 43.75837 -73.26398 33065 ft 446 kts 357°
2026-04-25 14:12 43.82008 -73.25741 33065 ft 446 kts 357°
2026-04-25 14:13 43.88205 -73.25079 33066 ft 446 kts 357°
2026-04-25 14:13 43.94410 -73.24027 33064 ft 456 kts
2026-04-25 14:14 44.00354 -73.21001 33066 ft 474 kts 19°
2026-04-25 14:14 44.05853 -73.15773 33066 ft 492 kts 33°
2026-04-25 14:14 44.08276 -73.12350 33064 ft 503 kts 41°
2026-04-25 14:15 44.10402 -73.08480 33066 ft 508 kts 46°
2026-04-25 14:15 44.14412 -73.00384 33051 ft 509 kts 47°
2026-04-25 14:16 44.18375 -72.92278 33039 ft 508 kts 47°
2026-04-25 14:16 44.22368 -72.84145 33060 ft 509 kts 46°
2026-04-25 14:17 44.26342 -72.76048 33066 ft 506 kts 46°
2026-04-25 14:17 44.30290 -72.67986 33086 ft 505 kts 46°
2026-04-25 14:18 44.34232 -72.59930 33087 ft 504 kts 46°
2026-04-25 14:18 44.38129 -72.51938 33085 ft 504 kts 46°
2026-04-25 14:19 44.41973 -72.44027 33074 ft 503 kts 46°
2026-04-25 14:19 44.45911 -72.35912 33064 ft 503 kts 46°
2026-04-25 14:20 44.49808 -72.27853 33048 ft 503 kts 46°
2026-04-25 14:20 44.53711 -72.19753 33060 ft 502 kts 46°
2026-04-25 14:21 44.57567 -72.11729 33078 ft 499 kts 46°
2026-04-25 14:21 44.61338 -72.03870 33091 ft 500 kts 46°
2026-04-25 14:22 44.65218 -71.95760 33088 ft 501 kts 46°
2026-04-25 14:22 44.69057 -71.87704 33073 ft 499 kts 46°
2026-04-25 14:23 44.72899 -71.79624 33049 ft 499 kts 46°
2026-04-25 14:23 44.76732 -71.71540 33050 ft 498 kts 46°
2026-04-25 14:24 44.80559 -71.63442 33041 ft 497 kts 46°
2026-04-25 14:24 44.84392 -71.55318 33029 ft 498 kts 46°
2026-04-25 14:25 44.88203 -71.47208 33022 ft 496 kts 45°
2026-04-25 14:25 44.91981 -71.39152 33025 ft 496 kts 45°
2026-04-25 14:26 44.95805 -71.30975 33024 ft 500 kts 46°
2026-04-25 14:26 44.99593 -71.22845 33027 ft 499 kts 46°
2026-04-25 14:27 45.03408 -71.14629 33024 ft 499 kts 46°
2026-04-25 14:27 45.07158 -71.06530 33024 ft 495 kts 46°
2026-04-25 14:28 45.10685 -70.98193 33032 ft 508 kts 52°
2026-04-25 14:28 45.13742 -70.89092 33027 ft 513 kts 56°
2026-04-25 14:29 45.16519 -70.80164 33020 ft 512 kts 56°
2026-04-25 14:29 45.19373 -70.70966 33017 ft 511 kts 56°
2026-04-25 14:30 45.22247 -70.61706 33033 ft 514 kts 56°
2026-04-25 14:30 45.26528 -70.47852 33050 ft 511 kts 57°
2026-04-25 14:31 45.29359 -70.38660 33056 ft 511 kts 57°
2026-04-25 14:31 45.32177 -70.29475 33052 ft 510 kts 57°
2026-04-25 14:32 45.34999 -70.20245 33062 ft 509 kts 58°
2026-04-25 14:32 45.37792 -70.11084 33061 ft 508 kts 58°
2026-04-25 14:33 45.40595 -70.01853 33059 ft 508 kts 58°
2026-04-25 14:33 45.43395 -69.92606 33053 ft 508 kts 59°
2026-04-25 14:34 45.46159 -69.83427 33043 ft 508 kts 59°
2026-04-25 14:34 45.48920 -69.74219 33035 ft 505 kts 59°
2026-04-25 14:35 45.51667 -69.65045 33039 ft 505 kts 59°
2026-04-25 14:35 45.54410 -69.55842 33052 ft 505 kts 59°
2026-04-25 14:36 45.57138 -69.46658 33061 ft 504 kts 60°
2026-04-25 14:36 45.59870 -69.37425 33064 ft 504 kts 60°
2026-04-25 14:37 45.62560 -69.28298 33063 ft 503 kts 61°
2026-04-25 14:37 45.65257 -69.19110 33059 ft 502 kts 61°
2026-04-25 14:38 45.67945 -69.09936 33060 ft 501 kts 61°
2026-04-25 14:38 45.70622 -69.00753 33063 ft 501 kts 62°
2026-04-25 14:39 45.73235 -68.91750 33073 ft 500 kts 62°
2026-04-25 14:39 45.75878 -68.82623 33087 ft 498 kts 62°
2026-04-25 14:40 45.78511 -68.73483 33090 ft 498 kts 62°
2026-04-25 14:40 45.81139 -68.64348 33097 ft 497 kts 62°
2026-04-25 14:41 45.83707 -68.55366 33102 ft 496 kts 62°
2026-04-25 14:41 45.86319 -68.46211 33106 ft 494 kts 63°
2026-04-25 14:42 45.88456 -68.38689 33101 ft 494 kts 63°
2026-04-25 14:42 45.88893 -68.37149 33087 ft 494 kts 63°